Weather Roundup
Issued by NWS

Home | Current Version | Previous Version | Graphics & Text | Print | Product List | Glossary Off
Versions: 1 2 3 4 5 6 7 8 9 10 11 12 13 14 15 16 17 18 19 20 21 22 23 24 25 26 27 28 29 30 31 32 33 34 35 36 37 38 39 40 41 42 43 44 45 46 47 48 49 50

000
NZUS93 KARX 180659
HRRWXR

CURRENT HOURLY OBSERVATIONS ACROSS
MUCH OF THE UPPER MISSISSIPPI VALLEY
NATIONAL WEATHER SERVICE LA CROSSE WI
100 AM CST THU DEC 18 2014


...SOUTHEAST MINNESOTA...


CITY           SKY/WX    TMP DP  RH WIND       PRES   REMARKS
ROCHESTER      CLOUDY    16  11  80 CALM      30.28F
ROCHESTER/MAYO FAIR      16  11  80 CALM      30.30F
WINONA         CLOUDY    18  14  86 CALM      30.34S
AUSTIN         MOCLDY    14  10  85 CALM      30.28F
ALBERT LEA     CLOUDY    18  16  93 NE5       30.28S WCI  11
DODGE CENTER   PTCLDY    12  10  92 CALM      30.28S
PRESTON        CLOUDY    16  12  86 N3        30.28F
OWATONNA       PTCLDY    10   9  92 CALM      30.31R
FARIBAULT      PTCLDY    10   9  92 CALM      30.31F
$$

...ELSEWHERE IN MINNESOTA...


CITY           SKY/WX    TMP DP  RH WIND       PRES   REMARKS
MINNEAPOLIS    MOCLDY    14   9  80 CALM      30.34R
INTNL FALLS    PTCLDY     1  -4  79 CALM      30.31F
DULUTH         FLURRIES  18  13  80 NW3       30.28S
RED WING       MOCLDY    12   9  85 CALM      30.33R
REDWOOD FALLS  CLEAR      9   5  84 CALM      30.31F
MANKATO        CLOUDY    16   9  73 E5        30.31F WCI   9
WORTHINGTON    PTCLDY     9   7  92 CALM      30.27S
FAIRMONT       PTCLDY     9   5  85 N6        30.28S WCI  -1
$$

...SOUTHWEST WISCONSIN...


CITY           SKY/WX    TMP DP  RH WIND       PRES   REMARKS
LA CROSSE      CLOUDY    19  13  77 NW5       30.32F WCI  12
PRAIRIE DU CHI CLEAR     17  13  87 CALM      30.32F
BOSCOBEL       CLEAR     14  11  87 CALM      30.32F
LONE ROCK      NOT AVBL
PLATTEVILLE    CLEAR     15  13  92 CALM      30.28F
FORT MC COY    CLOUDY    20  13  75 CALM      30.31F
VIROQUA        FAIR      15  13  92 NW3       30.26F
WIS DELLS      NOT AVBL
$$

...ELSEWHERE IN WISCONSIN...


CITY           SKY/WX    TMP DP  RH WIND       PRES   REMARKS
MILWAUKEE      CLEAR     21  13  71 NW9       30.26F WCI  11
MADISON        CLEAR     17  13  84 CALM      30.28F
GREEN BAY      CLOUDY    27  21  78 NW7       30.26R WCI  19
EAU CLAIRE     NOT AVBL
BLACK RVR FLS  CLOUDY    21  13  73 CALM      30.30R
MEDFORD        CLOUDY    21  18  90 NW3       30.24S
WAUSAU         CLOUDY    24  18  77 N5        30.25R WCI  18
WIS RAPIDS     CLOUDY    20  13  74 NW5       30.29R WCI  13
MARSHFIELD     CLOUDY    20  15  81 NW8       30.26R WCI  10
RICE LAKE      CLOUDY    20  16  82 NW5       30.31F WCI  14
$$

...NORTHEAST IOWA...


CITY           SKY/WX    TMP DP  RH WIND       PRES   REMARKS
DECORAH        CLOUDY    18  12  79 CALM      30.27F
MASON CITY     PTCLDY    15  12  88 NE7       30.28F WCI   5
CHARLES CITY   PTCLDY    16  14  93 NE3       30.29F
OELWEIN        PTCLDY    16  12  86 NE7       30.28F WCI   6
$$

...ELSEWHERE IN IOWA...


CITY           SKY/WX    TMP DP  RH WIND       PRES   REMARKS
DES MOINES     CLOUDY    23  16  74 CALM      30.29F
IOWA CITY      PTCLDY    19  15  84 N3        30.31S
FORT DODGE     CLOUDY    16  12  86 CALM      30.30S
$$

...NORTHERN ILLINOIS...


CITY           SKY/WX    TMP DP  RH WIND       PRES   REMARKS
CHICAGO-OHARE  CLOUDY    24  15  68 N8        30.28F WCI  15
CHICAGO-MIDWAY CLOUDY    26  16  65 W5        30.29F WCI  20
MOLINE         MOCLDY    17  13  84 NE3       30.29F
ROCKFORD       CLOUDY    22  14  71 N6        30.31F WCI  14
PEORIA         CLOUDY    22  18  85 CALM      30.30F
$$

NOTE: "FAIR" INDICATES FEW OR NO CLOUDS BELOW 12,000 FEET WITH NO
SIGNIFICANT WEATHER AND/OR OBSTRUCTIONS TO VISIBILITY. WIND
SPEEDS ARE IN MILES-PER-HOUR.



USA.gov is the U.S. government's official web portal to all federal, state and local government web resources and services.